Location: Grossmotten
(48.5500°N, 15.3833°E)
Time: 12:43:56
(UTC+00:00)

Cosmos 2173 Rocket - Pass Details

Date: 15 November 2019
Orbit: 944 x 1001 km, 83.0° (Epoch: 15 December)

Event Time Altitude Azimuth Distance (km) Brightness Sun altitude
Rises 04:24:57 0° 190° (S) 3,685 7.0 -16.6°
Reaches altitude 10° 04:27:28 10° 191° (SSW) 2,734 6.3 -16.2°
Maximum altitude 04:33:45 81° 279° (W) 993 3.9 -15.2°
Drops below altitude 10° 04:39:59 10° 7° (N) 2,712 6.3 -14.2°
Sets 04:42:29 0° 9° (N) 3,655 7.0 -13.8°
